Location: Bonham
(33.5773°N, 96.1783°W)
Time: 17:14:31
(UTC+00:00)

CZ-4B R/B - Visible Passes

Search period start: 11 June 2026 00:00
Search period end: 21 June 2026 00:00
Orbit: 700 x 797 km, 98.9° (Epoch: 11 June)

Date Brightness Start Highest point End Pass type
(mag) Time Alt. Az. Time Alt. Az. Time Alt. Az.
11 Jun 3.4 04:04:08 64° ESE 04:04:33 67° ENE 04:09:39 10° N visible
11 Jun 6.0 05:43:59 11° W 05:43:59 11° W 05:44:44 10° WNW visible
12 Jun 4.7 03:21:58 23° E 03:23:13 25° ENE 03:27:22 10° NNE visible
12 Jun 4.8 05:01:49 31° W 05:01:49 31° W 05:06:07 10° NW visible
13 Jun 3.3 04:19:39 80° SSW 04:19:54 85° WSW 04:25:05 10° NNW visible
14 Jun 4.3 03:37:30 32° E 03:38:29 35° ENE 03:43:09 10° N visible
14 Jun 5.3 05:17:20 22° W 05:17:20 22° W 05:21:00 10° NW visible
15 Jun 5.5 02:55:20 12° E 02:57:19 14° ENE 02:59:55 10° NNE visible
15 Jun 3.7 04:35:11 59° WSW 04:35:18 60° W 04:40:25 10° NNW visible
16 Jun 3.8 03:53:01 46° E 03:53:46 50° ENE 03:58:46 10° N visible
16 Jun 5.7 05:32:52 15° W 05:32:52 15° W 05:35:32 10° WNW visible
17 Jun 5.1 03:10:52 17° E 03:12:31 20° ENE 03:16:10 10° NNE visible
17 Jun 4.3 04:50:43 41° W 04:50:43 41° W 04:55:37 10° NNW visible
18 Jun 3.4 04:08:34 66° ESE 04:09:06 73° ENE 04:14:17 10° N visible
18 Jun 6.1 05:48:25 10° W 05:48:25 10° W 05:48:33 10° W visible
19 Jun 4.7 03:26:25 24° E 03:27:44 28° ENE 03:32:05 10° NNE visible
19 Jun 4.9 05:06:16 29° W 05:06:16 29° W 05:10:40 10° NW visible
20 Jun 5.7 02:45:32 10° ENE 02:46:39 11° ENE 02:47:47 10° NE visible
20 Jun 3.4 04:24:07 75° SSW 04:24:28 80° WSW 04:29:42 10° NNW visible
